MOS 1A (MOMO 1)

导读

MOS 1A(MOMO 1)是日本于1987年2月19日08:00发射的海洋观测卫星,由N-2火箭从种子岛发射基地成功送入轨道。作为日本早期海洋卫星任务,它主要承担海洋环境观测任务,获取海洋水色、海面温度等基础海洋科学数据,为日本开展海洋动力学研究、海洋资源勘探提供了首批太空观测数据,也奠定了日本后续海洋遥感卫星发展的技术基础,是日本航天探索海洋领域的先驱性任务。

基本信息
目录编号:
17527
目录名称:
MOS 1A (MOMO 1)
国际标识:
1987-018A
轨道中心:
EARTH
卫星名称:
MOS 1A (MOMO 1)
卫星全名:
--
卫星状态:
在轨 (已飞行14390 天)
发射日期:
1987-02-19 UTC
国别 :
日本 (JP)
星等 :
--
轨道信息
数据来源 国际轨道数据 AOE轨道数据
星历时间 2026-07-14T02:53:36+0800
10小时前
查看轨道信息
2026-07-10T23:00:00+0800
3天前
查看轨道信息
半长轴 7260.806km 7260.812km
偏心率 0.0009599 0.0009264
轨道倾角 98.840° 98.841°
近地点辐角 114.123° 121.560°
升交点赤经 243.481° 240.409°
平近点角 358.938° 226.103°
近地点 875.699km 875.948km
远地点 889.639km 889.402km
周期 102.621分钟 102.621分钟
每日圈数 14.032194 14.032176
详细信息
使用方式:
暂无
2D轨道图
3D轨道图
轨道高度分析图
轨道倾角分析图
轨道综合分析图
查看轨道综合分析图